Location: Hylvaty SDH
(49.9612°N, 16.4057°E)
Time: 03:39:02
(UTC+01:00)

Tiros 1 despin weight - Pass Details

Date: 19 January 2021
Orbit: 593 x 642 km, 48.2° (Epoch: 24 February)

Event Time Altitude Azimuth Distance (km) Brightness Sun altitude
Rises 19:57:43 0° 276° (W) 2,844 ? -33.3°
Reaches altitude 10° 20:00:02 10° 273° (W) 1,935 ? -33.6°
Enters shadow 20:01:37 21° 267° (W) 1,345 ? -33.9°
